Location: Belloy
(55.7522°N, 118.2333°W)
Time: 00:17:35
(UTC+00:00)

Envisat - Pass Details

Date: 07 December 2021
Orbit: 764 x 766 km, 98.2° (Epoch: 27 January)

Event Time Altitude Azimuth Distance (km) Brightness Sun altitude
Rises 15:16:54 0° 9° (N) 3,250 6.0 -6.6°
Reaches altitude 10° 15:20:02 10° 349° (N) 2,319 5.1 -6.2°
Maximum altitude 15:23:04 16° 312° (NW) 1,921 4.5 -5.9°
Drops below altitude 10° 15:26:05 10° 276° (W) 2,311 4.9 -5.5°
Sets 15:29:12 0° 255° (WSW) 3,233 5.8 -5.1°
